| time (UTC) | temp F | wind direction | speed knots | gust knots | rain 1hr in | rain 24hr in | rain mn in | humidity % | barometer mb |
| 20260510054537 | 54 | 300 | 4.3 | 18.2 | 0.07 | 0.58 | 0.09 | 96 | 1010.4 |
| 20260510053029 | 54 | 227 | 3.5 | 8.7 | 0.00 | 0.52 | 0.02 | 96 | 1010.7 |
| 20260510051533 | 54 | 187 | 2.6 | 4.3 | 0.00 | 0.52 | 0.02 | 96 | 1009.7 |
| 20260510050031 | 54 | 187 | 2.6 | 4.3 | 0.01 | 0.52 | 0.02 | 96 | 1009.6 |
| 20260510044530 | 54 | 187 | 3.5 | 5.2 | 0.10 | 0.52 | 0.02 | 96 | 1009.6 |
| 20260510043034 | 55 | 195 | 1.7 | 4.3 | 0.15 | 0.52 | 0.02 | 96 | 1009.5 |
| 20260510041528 | 55 | 350 | 1.7 | 7.0 | 0.16 | 0.52 | 0.02 | 95 | 1009.7 |
| 20260510040030 | 55 | 174 | 4.3 | 7.0 | 0.16 | 0.50 | 0.00 | 95 | 1009.4 |
| 20260510034532 | 55 | 360 | 0.0 | 7.0 | 0.08 | 0.43 | 0.42 | 95 | 1009.9 |
| 20260510033029 | 55 | 172 | 4.3 | 7.0 | 0.03 | 0.38 | 0.37 | 95 | 1009.0 |
| 20260510031531 | 55 | 226 | 0.0 | 4.3 | 0.01 | 0.36 | 0.35 | 95 | 1009.7 |
| 20260510030029 | 55 | 188 | 3.5 | 7.0 | 0.00 | 0.35 | 0.34 | 95 | 1009.1 |
| 20260510024530 | 54 | 153 | 1.7 | 6.1 | 0.01 | 0.36 | 0.34 | 95 | 1009.2 |
| 20260510023028 | 54 | 168 | 2.6 | 5.2 | 0.07 | 0.36 | 0.34 | 95 | 1009.3 |
| 20260510021528 | 55 | 0 | 0.0 | 4.3 | 0.16 | 0.36 | 0.34 | 94 | 1009.3 |
| 20260510020028 | 55 | 203 | 2.6 | 3.5 | 0.29 | 0.36 | 0.34 | 93 | 1009.5 |
| 20260510014535 | 55 | 0 | 0.0 | 8.7 | 0.28 | 0.36 | 0.33 | 92 | 1009.4 |
| 20260510013028 | 55 | 40 | 5.2 | 14.8 | 0.21 | 0.29 | 0.26 | 90 | 1009.5 |
| 20260510011531 | 57 | 259 | 1.7 | 15.6 | 0.12 | 0.20 | 0.17 | 82 | 1008.9 |
| 20260510010030 | 64 | 33 | 3.5 | 12.2 | 0.00 | 0.08 | 0.05 | 63 | 1008.0 |
| 20260510004529 | 64 | 198 | 6.1 | 10.4 | 0.00 | 0.09 | 0.05 | 61 | 1006.6 |
| 20260510003038 | 65 | 227 | 7.0 | 12.2 | 0.00 | 0.09 | 0.05 | 60 | 1007.0 |
| 20260510001530 | 65 | 228 | 7.0 | 13.9 | 0.00 | 0.09 | 0.05 | 59 | 1006.8 |
| 20260510000030 | 66 | 222 | 7.8 | 15.6 | 0.00 | 0.09 | 0.05 | 58 | 1006.7 |
| 20260509234537 | 66 | 252 | 10.4 | 17.4 | 0.00 | 0.09 | 0.05 | 57 | 1006.6 |
| 20260509233032 | 67 | 224 | 10.4 | 16.5 | 0.00 | 0.09 | 0.05 | 56 | 1006.3 |
| 20260509231535 | 67 | 229 | 14.8 | 20.9 | 0.00 | 0.09 | 0.05 | 54 | 1006.1 |
| 20260509230030 | 67 | 244 | 13.9 | 20.9 | 0.00 | 0.09 | 0.05 | 54 | 1006.1 |
| 20260509224533 | 67 | 216 | 13.0 | 25.2 | 0.00 | 0.09 | 0.05 | 54 | 1006.5 |
| 20260509223031 | 68 | 213 | 8.7 | 20.9 | 0.00 | 0.09 | 0.05 | 54 | 1006.3 |
| 20260509221530 | 68 | 216 | 12.2 | 19.1 | 0.00 | 0.09 | 0.05 | 55 | 1006.4 |
| 20260509220030 | 67 | 237 | 13.9 | 25.2 | 0.00 | 0.09 | 0.05 | 55 | 1006.4 |
| 20260509214532 | 68 | 205 | 10.4 | 20.9 | 0.00 | 0.09 | 0.05 | 56 | 1006.6 |
| 20260509213030 | 68 | 240 | 10.4 | 16.5 | 0.00 | 0.09 | 0.05 | 57 | 1006.6 |
| 20260509211528 | 68 | 217 | 13.0 | 20.9 | 0.00 | 0.09 | 0.05 | 58 | 1006.7 |
| 20260509210030 | 68 | 218 | 10.4 | 17.4 | 0.00 | 0.09 | 0.05 | 56 | 1006.7 |
| 20260509204530 | 67 | 231 | 12.2 | 20.9 | 0.00 | 0.09 | 0.05 | 56 | 1006.9 |
| 20260509203039 | 67 | 238 | 9.6 | 15.6 | 0.00 | 0.09 | 0.05 | 57 | 1007.0 |
| 20260509201530 | 67 | 238 | 6.1 | 20.0 | 0.00 | 0.09 | 0.05 | 59 | 1007.3 |
| 20260509200029 | 66 | 224 | 14.8 | 20.9 | 0.00 | 0.09 | 0.05 | 58 | 1007.6 |
| 20260509194531 | 65 | 229 | 10.4 | 15.6 | 0.00 | 0.09 | 0.05 | 61 | 1007.9 |
| 20260509193037 | 65 | 243 | 12.2 | 19.1 | 0.00 | 0.09 | 0.05 | 62 | 1007.8 |
| 20260509191538 | 65 | 256 | 13.0 | 17.4 | 0.00 | 0.09 | 0.05 | 62 | 1008.1 |
| 20260509190029 | 65 | 248 | 8.7 | 18.2 | 0.00 | 0.09 | 0.05 | 65 | 1008.3 |
| 20260509184538 | 64 | 249 | 8.7 | 20.0 | 0.00 | 0.09 | 0.05 | 66 | 1008.4 |
| 20260509183032 | 63 | 269 | 10.4 | 17.4 | 0.00 | 0.09 | 0.05 | 67 | 1008.4 |
| 20260509181544 | 63 | 225 | 12.2 | 20.0 | 0.00 | 0.09 | 0.05 | 69 | 1008.3 |
| 20260509180032 | 61 | 221 | 13.0 | 20.0 | 0.00 | 0.09 | 0.05 | 72 | 1008.4 |
| 20260509174531 | 61 | 250 | 10.4 | 14.8 | 0.00 | 0.09 | 0.05 | 74 | 1008.7 |
| 20260509173029 | 61 | 257 | 10.4 | 14.8 | 0.00 | 0.09 | 0.05 | 76 | 1008.6 |
| 20260509171531 | 60 | 237 | 13.0 | 21.7 | 0.00 | 0.09 | 0.05 | 75 | 1008.8 |
| 20260509170042 | 60 | 257 | 9.6 | 17.4 | 0.00 | 0.09 | 0.05 | 77 | 1008.7 |
| 20260509164536 | 57 | 223 | 10.4 | 15.6 | 0.00 | 0.09 | 0.05 | 82 | 1008.6 |
| 20260509163033 | 58 | 245 | 7.0 | 15.6 | 0.00 | 0.09 | 0.05 | 82 | 1008.7 |
| 20260509161534 | 58 | 228 | 10.4 | 15.6 | 0.00 | 0.09 | 0.05 | 80 | 1008.7 |
| 20260509160036 | 57 | 273 | 6.1 | 13.9 | 0.00 | 0.09 | 0.05 | 81 | 1008.4 |
| 20260509154534 | 57 | 257 | 7.8 | 13.9 | 0.00 | 0.09 | 0.05 | 82 | 1008.2 |
| 20260509153038 | 58 | 235 | 10.4 | 15.6 | 0.00 | 0.09 | 0.05 | 83 | 1008.1 |
| 20260509151530 | 57 | 232 | 9.6 | 16.5 | 0.00 | 0.09 | 0.05 | 86 | 1008.1 |
| 20260509150031 | 56 | 279 | 9.6 | 15.6 | 0.00 | 0.09 | 0.05 | 88 | 1008.0 |
| 20260509144532 | 56 | 243 | 9.6 | 15.6 | 0.00 | 0.09 | 0.05 | 91 | 1008.1 |
| 20260509143033 | 54 | 243 | 5.2 | 13.0 | 0.00 | 0.09 | 0.05 | 94 | 1008.1 |
| 20260509141532 | 53 | 234 | 6.1 | 11.3 | 0.00 | 0.09 | 0.05 | 95 | 1008.2 |
| 20260509140032 | 52 | 247 | 3.5 | 11.3 | 0.00 | 0.09 | 0.05 | 94 | 1008.4 |
| 20260509134531 | 52 | 241 | 7.8 | 12.2 | 0.00 | 0.09 | 0.05 | 95 | 1008.6 |
| 20260509133029 | 52 | 238 | 7.8 | 12.2 | 0.01 | 0.09 | 0.05 | 95 | 1008.5 |
| 20260509131535 | 51 | 234 | 7.0 | 11.3 | 0.01 | 0.09 | 0.05 | 95 | 1008.6 |
| 20260509130032 | 51 | 207 | 7.0 | 11.3 | 0.01 | 0.09 | 0.05 | 95 | 1008.5 |
| 20260509124530 | 51 | 227 | 5.2 | 9.6 | 0.00 | 0.08 | 0.04 | 95 | 1008.5 |
| 20260509123029 | 51 | 239 | 5.2 | 8.7 | 0.00 | 0.08 | 0.04 | 95 | 1008.8 |
| 20260509121531 | 50 | 203 | 5.2 | 10.4 | 0.00 | 0.08 | 0.04 | 95 | 1008.8 |
| 20260509120038 | 50 | 217 | 6.1 | 10.4 | 0.00 | 0.08 | 0.04 | 95 | 1008.9 |
| 20260509114533 | 50 | 229 | 6.1 | 9.6 | 0.00 | 0.08 | 0.04 | 95 | 1008.9 |
| 20260509113032 | 50 | 223 | 6.1 | 10.4 | 0.00 | 0.08 | 0.04 | 95 | 1008.7 |
| 20260509111531 | 50 | 229 | 7.8 | 12.2 | 0.00 | 0.08 | 0.04 | 94 | 1008.5 |
| 20260509110035 | 50 | 200 | 6.1 | 10.4 | 0.01 | 0.08 | 0.04 | 94 | 1008.3 |
| 20260509104533 | 50 | 229 | 5.2 | 10.4 | 0.01 | 0.08 | 0.04 | 94 | 1008.3 |
| 20260509103034 | 50 | 211 | 4.3 | 10.4 | 0.01 | 0.08 | 0.04 | 94 | 1008.2 |
| 20260509101543 | 50 | 211 | 5.2 | 8.7 | 0.01 | 0.08 | 0.04 | 94 | 1008.3 |
| 20260509100030 | 50 | 210 | 5.2 | 9.6 | 0.00 | 0.07 | 0.03 | 94 | 1008.4 |
| 20260509094531 | 50 | 235 | 3.5 | 7.0 | 0.01 | 0.07 | 0.03 | 93 | 1008.6 |
| 20260509093030 | 50 | 199 | 4.3 | 7.8 | 0.01 | 0.07 | 0.03 | 94 | 1008.7 |
| 20260509091534 | 50 | 186 | 3.5 | 7.8 | 0.01 | 0.07 | 0.03 | 94 | 1008.6 |
| 20260509090030 | 50 | 196 | 1.7 | 4.3 | 0.01 | 0.07 | 0.03 | 94 | 1008.7 |
| 20260509084531 | 50 | 205 | 3.5 | 6.1 | 0.00 | 0.06 | 0.02 | 94 | 1009.1 |
| 20260509083033 | 50 | 190 | 1.7 | 4.3 | 0.00 | 0.06 | 0.02 | 95 | 1009.1 |
| 20260509081534 | 49 | 225 | 1.7 | 4.3 | 0.01 | 0.06 | 0.02 | 95 | 1009.2 |
| 20260509080033 | 49 | 165 | 3.5 | 5.2 | 0.01 | 0.06 | 0.02 | 95 | 1009.2 |
| 20260509074530 | 49 | 156 | 3.5 | 5.2 | 0.01 | 0.06 | 0.02 | 95 | 1009.4 |
| 20260509073049 | 49 | 172 | 0.9 | 5.2 | 0.01 | 0.06 | 0.02 | 95 | 1009.3 |
| 20260509071536 | 49 | 143 | 4.3 | 7.8 | 0.00 | 0.05 | 0.01 | 95 | 1009.2 |
| 20260509070029 | 49 | 119 | 1.7 | 5.2 | 0.00 | 0.05 | 0.01 | 95 | 1009.3 |
| 20260509064534 | 49 | 144 | 2.6 | 4.3 | 0.00 | 0.05 | 0.01 | 95 | 1009.4 |
| 20260509063031 | 49 | 144 | 0.9 | 2.6 | 0.01 | 0.05 | 0.01 | 95 | 1009.4 |
| 20260509061529 | 49 | 144 | 0.9 | 2.6 | 0.01 | 0.05 | 0.01 | 95 | 1009.4 |
| 20260509060037 | 49 | 0 | 0.0 | 0.0 | 0.01 | 0.05 | 0.01 | 95 | 1009.5 |